www.pogodaiklimat.ru

Погода и климат >> Архив погоды >> Россия >> Ненецкий АО >> Мыс Микулкин


ПОГОДА на Мысе Микулкин

  • Прогноз погоды на Мысе Микулкин
  • Монитор погоды на Мысе Микулкин
  • Климат города

АРХИВ ПОГОДЫ на Мысе Микулкин

Время (UTC), дата Ветер
(напр.,м/с)
 
Видим.   Явления Облачность Т
(С)
Тd
(С)
f
(%)
Тe
(С)
Тes
(С)
Комфортность P
(гПа)
Po
(гПа)
Тmin
(С)
Tmax
(С)
R
(мм)
S
(см)
09 13.02 СЗ 6
{12}
20 км 10/10 300 м
[St]
-0.7 -1.1 97 -8 -8 986.5 985.7
12 13.02 СЗ 7
{10}
20 км 4/1 600 м
[Sc Ac trans]
-2.6 -3.2 96 -11 -11 986.9 986.0
15 13.02 СЗ 9
{11}
20 км 8/8 600 м
[Sc]
-1.0 -2.1 92 -9 -9 986.3 985.4 -0.6
18 13.02 СЗ 8
{11}
20 км 10/8 600 м
[Sc Ac und]
-2.8 -4.2 90 -11 -11 985.5 984.7
21 13.02 СЗ 6
{10}
20 км 4/1 600 м
[Sc Ci fib]
-3.8 -4.9 92 -11 -11 985.7 984.9
00 14.02 С 12
{15}
10 км слабый снег {метель} 10/10 300 м
[Frnb Ns]
-2.2 -2.9 95 -12 -12 986.3 985.4
03 14.02 С 14
{19}
20 км позёмок {снег} 3/0
[Ac trans]
-1.2 -1.6 97 -11 -11 987.6 986.7 -3.8 0.0 13
06 14.02 С 16
{20}
500 м сильная метель {снег} 6/5 600 м
[Sc Ac trans]
-0.8 -1.1 98 -11 -11 991.9 991.1
09 14.02 С 15
{21}
20 км сильный позёмок {метель} 8/4 600 м
[Sc Ac trans Ci fib]
-2.1 -2.7 96 -13 -13 996.6 995.7
12 14.02 С 12
{19}
20 км сильный позёмок {метель} 10/5 600 м
[Sc Ac und]
-3.0 -3.7 95 -13 -13 1000.9 1000.0
15 14.02 С 9
{17}
20 км сильный позёмок {метель} 10/10 600 м
[Sc]
-3.8 -4.5 95 -13 -13 1004.0 1003.2 -0.8
18 14.02 С 11
{15}
20 км позёмок {метель} ясно -5.3 -6.2 93 -16 -16 1005.2 1004.3
21 14.02 С 12
{17}
20 км позёмок {метель} 3/0
[Ac trans]
-5.5 -6.3 94 -16 -16 1007.7 1006.8
00 15.02 С 11
{16}
20 км позёмок {метель} 3/3 600 м
[Sc]
-5.4 -6.1 95 -16 -16 1010.3 1009.4
03 15.02 С 15
{20}
20 км позёмок {метель} 4/4 600 м
[Sc]
-5.7 -6.4 95 -17 -17 1013.2 1012.3 -6.1 15
06 15.02 С 13
{20}
20 км позёмок {метель} 3/0
[Ac trans]
-6.4 -7.5 92 -18 -18 1016.1 1015.2 -6.4
09 15.02 С 10
{18}
500 м сильная метель 3/1 600 м
[Sc Ac trans]
-6.2 -7.0 94 -16 -16 1019.3 1018.3
12 15.02 С 7
{15}
20 км {метель} 4/3 600 м
[Sc Ac trans]
-6.7 -7.9 91 -15 -15 1021.0 1020.0
15 15.02 С 7
{10}
20 км 4/4 600 м
[Sc]
-7.7 -9.6 86 -17 -17 1021.4 1020.5 -5.7
18 15.02 СЗ 3 20 км 1/1 600 м
[Sc]
-9.6 -11.6 85 -16 -16 1020.0 1019.0
21 15.02 З 10
{13}
20 км 3/3 600 м
[Sc]
-3.9 -6.2 84 -13 -13 1016.9 1016.0
00 16.02 ЮЗ 17
{21}
500 м сильная метель 10/10 600 м
[Sc]
-4.6 -5.5 93 -16 -16 1011.0 1010.1
03 16.02 З 20
{27}
500 м сильная метель 10/10 600 м
[Sc]
-4.7 -5.9 91 -17 -17 1005.3 1004.4 -9.6 17
06 16.02 З 14
{28}
500 м сильная метель 10/8 600 м
[Sc Ac und]
-3.2 -3.8 96 -14 -14 1001.9 1001.0
09 16.02 З 9
{17}
20 км сильный позёмок {метель} 10/0
[Ac und]
-1.8 -2.3 96 -10 -10 1001.1 1000.2
12 16.02 С 5
{11}
20 км {метель} 10/5 600 м
[Sc Ac und]
+0.2 -0.2 97 -6 -6 1001.2 1000.3
15 16.02 СЗ 2 20 км 10/10 600 м
[Sc]
-0.4 -1.7 91 -4 -4 1001.4 1000.5 +0.3
18 16.02 З 1 4000 м слабый снег 10/10 300 м
[Frnb Ns]
-1.8 -2.0 99 -4 -4 1000.5 999.6
21 16.02 Ю 3 4000 м слабый снег 10/10 300 м
[Frnb Ns]
-2.0 -2.2 99 -7 -7 997.9 997.0
00 17.02 З 8
{11}
4000 м слабый снег {метель} 10/10 300 м
[Frnb Ns]
-2.0 -2.3 98 -10 -10 995.0 994.1
03 17.02 З 9
{11}
10 км слабый снег {метель} 10/10 300 м
[Frnb Ns]
-1.7 -2.0 98 -10 -10 993.4 992.6 -2.3 2 18
06 17.02 СВ 11
{15}
20 км позёмок {снег, метель} 10/10 600 м
[Sc]
-3.8 -4.2 97 -14 -14 994.5 993.6 -3.8
09 17.02 В 7
{14}
20 км позёмок {метель} 10/10 600 м
[Sc]
-4.2 -6.2 86 -12 -12 995.7 994.8
12 17.02 В 5 20 км {метель} 10/8 600 м
[Sc Ac und]
-4.3 -7.4 79 -11 -11 996.7 995.8
15 17.02 В 5 20 км 10/6 600 м
[Sc Ac und]
-4.8 -7.9 79 -12 -12 996.5 995.6 -1.7
18 17.02 ЮВ 6 20 км 10/10 600 м
[Sc]
-5.0 -9.6 70 -13 -13 995.7 994.8
21 17.02 ЮВ 9
{10}
20 км 10/10 600 м
[Sc]
-5.1 -10.1 68 -14 -14 993.8 992.9
00 18.02 В 12
{15}
10 км слабый снег {метель} 10/10 300 м
[Frnb Ns]
-6.3 -7.4 92 -17 -17 991.0 990.1
03 18.02 В 13
{16}
10 км слабый снег {метель} 10/10 300 м
[Frnb Ns]
-6.5 -7.6 92 -18 -18 988.0 987.1 -6.7 0.3 16
06 18.02 В 13
{16}
10 км слабый снег {метель} 10/10 300 м
[Frnb Ns]
-7.1 -8.0 93 -18 -18 986.4 985.5 -7.1
09 18.02 В 13
{16}
20 км сильный позёмок {снег, метель} 10/0
[Ac und]
-7.5 -8.7 91 -19 -19 985.9 985.0
12 18.02 В 12
{16}
20 км сильный позёмок {снег, метель} 10/0
[Ac und]
-7.5 -8.9 90 -19 -19 986.4 985.5
15 18.02 В 13
{16}
20 км сильный позёмок {метель} 10/10 600 м
[Sc]
-7.2 -8.7 89 -18 -18 988.8 987.9 -6.5 0.5
18 18.02 СВ 10
{15}
20 км позёмок {метель} 8/8 600 м
[Sc]
-7.2 -10.2 79 -17 -17 990.6 989.7
21 18.02 СВ 8
{13}
20 км {метель} 8/8 600 м
[Sc]
-8.3 -11.5 78 -18 -18 992.4 991.5
00 19.02 СВ 8
{11}
20 км позёмок {метель} ясно -9.9 -12.8 79 -20 -20 993.6 992.7
03 19.02 С 2
{11}
20 км {метель} ясно -14.4 -16.4 85 -19 -19 994.9 994.0 -14.4 19
06 19.02 СЗ 3 20 км {метель} 6/0
[Ac trans]
-12.4 -14.8 82 -18 -18 995.6 994.7 -14.8
09 19.02 Ю 4 20 км {снег} 8/0
[Ac trans]
-7.9 -9.4 89 -15 -14 995.7 994.8
12 19.02 Ю 5 10 км слабый снег 10/10 300 м
[Frnb Ns]
-7.9 -9.0 92 -16 -16 995.2 994.3
15 19.02 Ю 8
{10}
4000 м слабый снег {метель} 10/10 300 м
[Frnb Ns]
-9.1 -10.1 92 -19 -19 995.0 994.1 -7.5 0.6
18 19.02 Ю 7
{10}
4000 м слабый снег {метель} 10/10 300 м
[Frnb Ns]
-9.4 -10.5 92 -19 -19 995.0 994.1
21 19.02 ЮВ 6 10 км слабый снег {метель} 8/8 300 м
[Frnb As op]
-10.3 -11.3 92 -19 -19 994.7 993.8
00 20.02 Ю 6 20 км позёмок {снег, метель} 6/6 600 м
[Sc]
-11.1 -12.2 92 -20 -20 994.2 993.3
03 20.02 ЮВ 6 20 км {метель} 10/10 600 м
[Sc]
-11.3 -12.5 91 -20 -20 993.7 992.8 -11.5 0.3 23

 

Местоположение метеостанции Мыс Микулкин (Ненецкий АО, Россия): широта 67.80 долгота 46.66 высота над уровнем моря 6 м.

В архиве по умолчанию представлена погода на Мысе Микулкин за последнюю неделю. Архивные данные за месяц целиком и за предыдущие месяцы, начиная с января 2011 года, Вы можете получить, выбрав интересующий диапазон дат из раскрывающегося списка и нажав кнопку "Ввод!".

Внимание! Время в таблицах - всемирное. Для получения местного времени необходимо прибавить поправку, которая на Мысе Микулкин равна 3 ч.

Смотрите также архив погоды в соседних городах и на ближайших метеорологических станциях:

Погода в Индиге (Ненецкий АО, Россия) (86 км)
Погода в Шойне (Ненецкий АО, Россия) (105 км)
Погода в Нижней Пеше (Ненецкий АО, Россия) (126 км)
Погода в Бугрино (Ненецкий АО, Россия) (156 км)
Погода в Неси (Ненецкий АО, Россия) (158 км)
Погода в Канином Носе (Ненецкий АО, Россия) (168 км)
Погода в Сенгейском Шаре (Ненецкий АО, Россия) (205 км)
Погода в Коткино (Ненецкий АО, Россия) (209 км)
Погода на Колгуевом Острове (Ненецкий АО, Россия) (216 км)
Погода на Моржовец Острове (Архангельская область, Россия) (216 км)

Пояснения к столбцам:

Ветер - указаны скорость ветра в м/с - средняя за 10 мин, порывы в срок и между сроками (в фигурных скобках) и направление, откуда дует ветер: С - северный, СВ - северо-восточный, В - восточный, ЮВ - юго-восточный, Ю - южный, ЮЗ - юго-западный, З - западный, СЗ - северо-западный.
Видимость - горизонтальная дальность видимости в метрах или километрах. При видимости от 1 до 10 км при отсутствии осадков обычно наблюдается дымка, при ухудшении видимости до 1 км и менее - туман. В сухую погоду видимость может ухудшаться дымом, пылью или мглою.
Явления - указаны атмосферные явления, наблюдавшиеся в срок или в последний час перед сроком; фигурными скобками обозначены явления, наблюдавшиеся между сроками (за 1-3 часа до срока); квадратными скобками обозначены град или гололедные отложения с указанием их диаметра в мм.
Облачность - указаны через наклонную черту общая и нижняя облачность в баллах и высота нижней границы облаков в метрах; квадратными скобками обозначены формы облаков: Ci - перистые, Cs - перисто-слоистые, Cc - перисто-кучевые, Ac - высококучевые, As - высокослоистые, Sc - слоисто-кучевые, Ns - слоисто-дождевые, Cu - кучевые, Cb - кучево-дождевые. Подробнее классификацию облаков см. в Атласе облаков (PDF).
T - Температура воздуха - температура, измеренная на высоте 2 м над землей.
Td - Температура точки росы - температура, при понижении до которой содержащийся в воздухе водяной пар достигнет насыщения.
f - Относительная влажность воздуха - влажноcть воздуха, измеренная на высоте 2 м над землей.
Te - Эффективная температура - температура, которую ощущает одетый по сезону человек в тени. Характеристика душности погоды. При расчете учитывается влияние влажности воздуха и скорости ветра на теплоощущения человека.
Tes - Эффективная температура на солнце - температура, которую ощущает человек, с поправкой на солнечный нагрев. Характеристика знойности погоды. Зависит от высоты солнца над горизонтом, облачности и скорости ветра. Ночью, в пасмурную погоду, а также при ветре 12 м/с и более поправка равна нулю.
P - Атмосферное давление - приведенное к уровню моря атмосферное давление.
Po - Атмосферное давление - измеренное на уровне метеостанции атмосферное давление.
Tmin - Минимальная температура - минимум температуры воздуха на высоте 2 м над землей.
Tmax - Максимальная температура - максимум температуры воздуха на высоте 2 м над землей.
R - Количество осадков - Количество выпавших осадков, мм. При наведении курсора мыши на число - период времени, за который выпало указанное количество осадков.
S - Снежный покров - Высота снежного покрова, см. При наведении курсора мыши на число - состояние снежного покрова и степень покрытия местности в баллах.